TimeMST,TemperatureF,Dew PointF,Humidity,Sea Level PressureIn,VisibilityMPH,Wind Direction,Wind SpeedMPH,Gust SpeedMPH,PrecipitationIn,Events,Conditions,WindDirDegrees,DateUTC
12:52 AM,30.9,28.0,89,30.56,-9999.0,North,3.5,-,N/A,,Unknown,350,2013-12-26 07:52:00
1:52 AM,30.0,28.0,92,30.54,-9999.0,North,3.5,-,N/A,,Unknown,350,2013-12-26 08:52:00
2:52 AM,30.0,27.0,88,30.56,-9999.0,Calm,Calm,-,N/A,,Unknown,0,2013-12-26 09:52:00
3:52 AM,30.0,27.0,88,30.57,-9999.0,Calm,Calm,-,N/A,,Unknown,0,2013-12-26 10:52:00
4:52 AM,28.0,26.1,92,30.58,-9999.0,NW,3.5,-,N/A,,Unknown,320,2013-12-26 11:52:00
5:52 AM,27.0,25.0,92,30.58,-9999.0,Variable,3.5,-,N/A,,Unknown,0,2013-12-26 12:52:00
6:52 AM,27.0,25.0,92,30.57,-9999.0,Calm,Calm,-,N/A,,Unknown,0,2013-12-26 13:52:00
7:52 AM,27.0,25.0,92,30.56,-9999.0,Calm,Calm,-,N/A,,Unknown,0,2013-12-26 14:52:00
8:52 AM,26.1,24.1,92,30.57,-9999.0,NW,3.5,-,N/A,,Unknown,310,2013-12-26 15:52:00
9:52 AM,27.0,24.1,89,30.58,-9999.0,NW,4.6,-,N/A,,Unknown,320,2013-12-26 16:52:00
10:52 AM,32.0,26.1,79,30.56,-9999.0,Calm,Calm,-,N/A,,Unknown,0,2013-12-26 17:52:00
11:52 AM,34.0,28.0,79,30.51,-9999.0,North,4.6,-,N/A,,Unknown,360,2013-12-26 18:52:00
12:52 PM,37.9,28.9,70,30.48,-9999.0,North,5.8,-,N/A,,Unknown,350,2013-12-26 19:52:00
1:52 PM,37.9,30.0,73,30.46,-9999.0,NNW,4.6,-,N/A,,Unknown,330,2013-12-26 20:52:00
2:52 PM,37.0,30.9,79,30.44,-9999.0,Calm,Calm,-,N/A,,Unknown,0,2013-12-26 21:52:00
3:52 PM,34.0,30.9,89,30.45,-9999.0,Calm,Calm,-,N/A,,Unknown,0,2013-12-26 22:52:00
4:52 PM,32.0,30.0,92,30.48,-9999.0,Calm,Calm,-,N/A,,Unknown,0,2013-12-26 23:52:00
5:52 PM,30.9,28.9,92,30.48,-9999.0,Calm,Calm,-,N/A,,Unknown,0,2013-12-27 00:52:00
6:52 PM,30.0,28.9,96,30.48,-9999.0,Calm,Calm,-,N/A,,Unknown,0,2013-12-27 01:52:00
7:52 PM,30.0,28.0,92,30.48,-9999.0,Calm,Calm,-,N/A,,Unknown,0,2013-12-27 02:52:00
8:52 PM,30.0,28.9,96,30.48,-9999.0,Calm,Calm,-,N/A,,Unknown,0,2013-12-27 03:52:00
9:52 PM,28.9,28.0,96,30.49,-9999.0,Calm,Calm,-,N/A,,Unknown,0,2013-12-27 04:52:00
10:52 PM,28.9,28.0,96,30.48,-9999.0,Calm,Calm,-,N/A,,Unknown,0,2013-12-27 05:52:00
11:52 PM,28.0,27.0,96,30.49,-9999.0,Variable,3.5,-,N/A,,Unknown,0,2013-12-27 06:52:00